This demonstration page uses our WeatherBlox Daily Observations layout. Learn more.

Left ArrowRight Arrow

39.01783, -85.05884

Hourly Observations for July 18, 2018

Temp ( °F °C ) Dew Point ( °F °C ) Humidity (%) Winds ( mph kmh ) Pressure ( in mb ) Visibility ( mi km ) Precip ( " mm )
12:52 am 00:52 Mostly Cloudy 73 22.8 58 14.4 59 59 NNW 6 9 30.01 1016 10 16 0.00 0.00
1:52 am 01:52 Mostly Cloudy 71 21.7 57 13.9 61 61 N 7 11 30.01 1016 10 16 0.00 0.00
2:52 am 02:52 Partly Cloudy 70 21.1 57 13.9 64 64 NNW 7 11 30.02 1017 10 16 0.00 0.00
3:52 am 03:52 Mostly Clear 68 20 57 13.9 68 68 NNW 7 11 30.01 1016 10 16 0.00 0.00
4:52 am 04:52 Partly Cloudy 67 19.4 56 13.3 68 68 NNW 5 7 30.01 1016 10 16 0.00 0.00
5:52 am 05:52 Partly Cloudy 66 18.9 56 13.3 70 70 NW 6 9 30.02 1017 10 16 0.00 0.00
6:52 am 06:52 Mostly Sunny 64 17.8 57 13.9 78 78 NW 3 6 30.03 1017 10 16 0.00 0.00
7:52 am 07:52 Mostly Sunny 66 18.9 57 13.9 73 73 NNW 6 9 30.04 1017 10 16 0.00 0.00
8:52 am 08:52 Mostly Sunny 69 20.6 57 13.9 66 66 N 3 6 30.04 1017 10 16 0.00 0.00
9:52 am 09:52 Mostly Sunny 73 22.8 58 14.4 59 59 Calm 30.04 1017 10 16 0.00 0.00
10:52 am 10:52 Partly Cloudy 79 26.1 55 12.8 44 44 ENE 5 7 30.04 1017 10 16 0.00 0.00
11:52 am 11:52 Partly Cloudy 79 26.1 51 10.6 38 38 S 3 6 30.04 1017 10 16 0.00 0.00
12:52 pm 12:52 Partly Cloudy 83 28.3 49 9.4 31 31 Calm 30.03 1017 10 16 0.00 0.00
1:52 pm 13:52 Partly Cloudy 85 29.4 48 8.9 28 28 VRB 5 7 30.01 1016 10 16 0.00 0.00
2:52 pm 14:52 Partly Cloudy 87 30.6 49 9.4 27 27 E 6 9 30.01 1016 10 16 0.00 0.00
3:52 pm 15:52 Partly Cloudy 85 29.4 49 9.4 29 29 VRB 6 9 30.00 1016 10 16 0.00 0.00
4:52 pm 16:52 Partly Cloudy 88 31.1 49 9.4 26 26 VRB 5 7 29.98 1015 10 16 0.00 0.00
5:52 pm 17:52 Mostly Sunny 85 29.4 49 9.4 29 29 E 7 11 29.97 1015 10 16 0.00 0.00
6:52 pm 18:52 Partly Cloudy 86 30 50 10 29 29 E 7 11 29.96 1015 10 16 0.00 0.00
7:52 pm 19:52 Mostly Sunny 82 27.8 55 12.8 40 40 E 12 19 29.97 1015 10 16 0.00 0.00
8:52 pm 20:52 Partly Cloudy 80 26.7 57 13.9 45 45 E 8 13 29.97 1015 10 16 0.00 0.00
9:52 pm 21:52 Partly Cloudy 76 24.4 56 13.3 50 50 E 8 13 29.98 1015 10 16 0.00 0.00
10:52 pm 22:52 Partly Cloudy 76 24.4 56 13.3 50 50 E 9 15 30.00 1016 10 16 0.00 0.00
11:52 pm 23:52 Mostly Cloudy 75 23.9 56 13.3 52 52 ESE 9 15 30.00 1016 10 16 0.00 0.00

Powered by AerisWeather